Location: A�t Bou Chrif
(32.7193°N, 5.2385°W)
Time: 01:57:50
(UTC+00:00)

Cosmos 407 Rocket - Pass Details

Date: 08 August 2020
Orbit: 744 x 786 km, 74.0° (Epoch: 20 September)

Event Time Altitude Azimuth Distance (km) Brightness Sun altitude
Rises 20:12:54 0° 177° (S) 3,259 6.5 -12.4°
Reaches altitude 10° 20:15:23 10° 171° (S) 2,333 5.6 -12.9°
Maximum altitude 20:20:21 41° 101° (ESE) 1,113 3.9 -13.8°
Drops below altitude 10° 20:25:19 10° 32° (NNE) 2,332 6.0 -14.7°
Sets 20:27:47 0° 26° (NNE) 3,257 6.8 -15.1°
